Location: Unspecified
(51.0950°N, 12.9690°E)
Time: 15:28:43
(UTC+00:00)

CZ-2C R/B - Pass Details

Date: 28 October 2021
Orbit: 703 x 908 km, 98.1° (Epoch: 26 November)

Event Time Altitude Azimuth Distance (km) Brightness Sun altitude
Rises 16:21:50 0° 172° (S) 3,520 6.5 -5.7°
Reaches altitude 10° 16:24:17 10° 175° (S) 2,573 5.9 -6.1°
Maximum altitude 16:30:01 67° 258° (WSW) 957 3.8 -7.0°
Drops below altitude 10° 16:35:36 10° 341° (NNW) 2,497 5.8 -7.8°
Sets 16:37:57 0° 345° (NNW) 3,408 6.4 -8.2°
